Regional Weather Roundup
Issued by NWS Charleston, SC

Home | Current Version | Previous Version | Text Only | Print | Product List | Glossary On
Versions: 1 2 3 4 5 6 7 8 9 10 11 12 13 14 15 16 17 18 19 20 21 22 23 24 25 26 27 28 29 30 31 32 33 34 35 36 37 38 39 40 41 42 43 44 45 46 47 48 49 50
562
ASUS42 KCHS 250311
RWRCHS

REGIONAL WEATHER ROUNDUP
NATIONAL WEATHER SERVICE CHARLESTON SC
1000 PM EST FRI FEB 24 2017

NOTE: "FAIR" INDICATES FEW OR NO CLOUDS BELOW 12,000 FEET WITH NO
SIGNIFICANT WEATHER AND/OR OBSTRUCTIONS TO VISIBILITY.

NOT ALL STATIONS ARE QUALITY CONTROLLED. USE DATA WITH CAUTION...
ESPECIALLY DEWPOINT OBSERVATIONS.

SCZ027-030-031-034>040-042>050-250400-
...SOUTHEAST SOUTH CAROLINA...

CITY           SKY/WX    TMP DP  RH WIND       PRES   REMARKS
N CHARLESTON   CLEAR     63  59  87 CALM      29.85S
WATERFRONT PRK   N/A     62  61  96 CALM      29.84S
MOUNT PLEASANT FAIR      59  57  94 CALM      29.85S
JOHNS ISLAND   FAIR      61  61 100 CALM      29.85S
PINOPOLIS        N/A     64  61  88 CALM      29.76R
MONCKS CORNER  FAIR      61  57  88 CALM      29.85S
SUMMERVILLE    FAIR      61  59  94 CALM      29.86S
BEAUFORT MCAS  CLEAR     65  63  93 CALM      29.86R
BEAUFORT ARPT  FAIR      63  61  94 CALM      29.85S
HILTON HEAD IS CLEAR     64  63  94 VRB3      29.86S
WALTERBORO     CLEAR     61  59  94 S3        29.86R
ALLENDALE      FAIR      66  61  82 S6        29.85R

...SOUTHERN MIDLANDS AND PEE DEE...

CITY           SKY/WX    TMP DP  RH WIND       PRES   REMARKS
GEORGETOWN     FAIR      59  57  94 CALM      29.86S
KINGSTREE      FAIR      59  55  88 E5        29.85S
ORANGEBURG     CLEAR     66  59  78 S6        29.85R
BARNWELL       FAIR      68  61  77 S6        29.85R
AIKEN          FAIR      63  54  72 SE7       29.87R
MANNING        FAIR      61  57  88 MISG      29.85R
COLUMBIA       CLEAR     67  55  65 S8        29.83R
SUMTER         CLEAR     63  56  78 CALM      29.82R
FLORENCE       CLEAR     62  58  86 S6        29.85R
MYRTLE BEACH   CLEAR     63  59  88 CALM      29.86R
N MYRTLE BEACH CLEAR     59  58  96 CALM      29.85R

$$

GAZ063-065-086>088-099>101-113>116-118-119-134>141-150-250400-
...SOUTHEAST GEORGIA...

CITY           SKY/WX    TMP DP  RH WIND       PRES   REMARKS
SAVANNAH ARPT  CLEAR     63  59  87 SE5       29.86R
HUNTER AAF     CLEAR     64  63  99 CALM      29.83S
FORT STEWART   CLEAR     63  61  92 CALM      29.84R
STATESBORO     CLEAR     65  62  89 S6        29.85R
SYLVANIA       CLEAR    N/A N/A N/A CALM      29.86R
CLAXTON        FAIR     N/A N/A N/A CALM      29.86R

...CSRA...CENTRAL AND FAR SOUTHEAST GEORGIA...

CITY           SKY/WX    TMP DP  RH WIND       PRES   REMARKS
THOMSON        CLEAR     62  58  86 CALM      29.87S
AUGUSTA-BUSH   CLEAR     65  56  72 S7        29.83R
AUGUSTA-DANIEL CLEAR     70  53  54 CALM      29.84R
SWAINSBORO     FAIR      66  59  77 S6        29.85S
VIDALIA        CLEAR     68  63  83 S6        29.85R
EASTMAN        FAIR      62  59  92 CALM      29.85S
HAZLEHURST     FAIR      69  65  85 S7        29.84S
ALMA           CLEAR     67  63  87 SE6       29.85R
WAYCROSS       CLEAR     69  68  96 SE5       29.86R
JESUP          FAIR      64  61  88 CALM      29.87R
BAXLEY         FAIR      68  68 100 SE5       29.85R
BRUNSWICK      CLEAR     64  63  94 SE3       29.87S
SAINT SIMONS   CLEAR     64  62  93 SE7       29.85S

$$

SCZ027-028-034-036>038-045-046-048>050-GAZ119-141-250400-
...LAKE AND SUPPLEMENTAL COASTAL OBSERVATIONS...

STATION/POSITION TIME  TEMP    WIND        PRES    WAVE   SWELL
                       AIR SEA DIR/SP/G            HT/PER HT/PER/DIR
                 (UTC) (F)     (DEG/KT/KT) (MB)    (FT/S) (FT/S/D)
WINYAH BAY       NOT AVBL
LAKE MURRAY      0220   67      CALM  /  3 1009.5R
ACE BASIN NERRS  NOT AVBL
FORT PULASKI     0248   64 63  140/  5/  9 1011.1R
SAPELO ISLAND    0200   64     100/  5     1011.0

$$

ANZ835-935-AMZ111-154-330-350-352-354-370-450-454-472-250400-
...C-MAN AND BUOY OBSERVATIONS...

STATION/POSITION TIME  TEMP    WIND        PRES    WAVE   SWELL
                       AIR SEA DIR/SP/G            HT/PER HT/PER/DIR
                 (UTC) (F)     (DEG/KT/KT) (MB)    (FT/S) (FT/S/D)
BUOY 41004       0150   69 71   50/  6/  6 1010.4    7/11   7/110/11
BUOY 41008       0150   63 62   90/  4/  6 1010.7    5/11   5/ 80/11
FOLLY BEACH CMAN 0200   63     130/  6/  6 1011.2F
CAPERS NEARSHORE NOT AVBL
FRIPP NEARSHORE  0208   62 62  140/  4/  6 1010.4S


STATION/POSITION TIME  TEMP    WIND        PRES    WAVE   SWELL
                       AIR SEA DIR/SP/G            HT/PER HT/PER/DIR
                 (UTC) (F)     (DEG/KT/KT) (MB)    (FT/S) (FT/S/D)
5E ST. MARYS GA  0230      64                N/A     4/12   3/ 90/12
FRYING PAN BUOY  0250   71 72   50/ 10/ 12 1010.1R   7/ 9   7/130/ 9
BUOY 41025       0250   71 76  110/ 14/ 17 1010.7S   8/10   7/130/10
CAPE LOOKOUT NC  0200   65      80/  7/  8 1010.4F
BUOY 41002       0150   68 70   30/  4/  6 1007.8   11/11  11/130/11
BUOY 41010       NOT AVBL
ST AUGUSTINE FL  0300   66 67   80/  6/  7 1012.2S


$$




USA.gov is the U.S. government's official web portal to all federal, state and local government web resources and services.